Home   Weather   Saguenay   Past weeks

Flag for Canada Past Weather in Saguenay, Quebec, Canada — Yesterday and Last 2 Weeks

Now
28 °F

Chilly.


Feels Like: 24 °F
Forecast: 19 / 31 °F
Wind: 3 mph from Southeast

Location: Jonquiere Airport

Current Time: Jan 20, 2017 at 4:58:09 am

Latest Report: Jan 20, 2017 at 4:00 am


Visibility: N/A

Pressure: 29.99 "Hg

Humidity: 94%

Dew Point: 27 °F

Location of SaguenayLocation

Past Weather in Saguenay — Graph

°F

Saguenay Temperature Yesterday

Maximum temperature yesterday: 34 °F (at 6:00 pm)
Minimum temperature yesterday: 21 °F (at 12:00 am)
Average temperature yesterday: 26 °F

High & Low Weather Summary for the Past Weeks

 TemperatureHumidityPressure
High45 °F (Jan 12, 1:00 am)100% (Jan 12, 5:00 pm)30.72 "Hg (Jan 12, 5:00 pm)
Low-20 °F (Jan 8, 9:00 am)37% (Jan 12, 1:00 am)29.25 "Hg (Jan 5, 3:00 am)
Average9 °F76%30.15 "Hg
* Reported Jan 5 3:00 am — Jan 20 3:00 am, Saguenay, Weather by CustomWeather, © 2017

Note: Actual official high and low records may vary slightly from our data, if they occured in-between our weather recording intervals... More about our weather records

Advertising

Saguenay Weather History for the Previous 24 Hours

Scroll right to see more
 ConditionsComfort  
Time TempWeatherWind HumidityBarometerVisibility
3:00 am
Fri, Jan 20
29 °FChilly.1 mph91%30.01 "HgN/A
2:00 am30 °FChilly.1 mph91%30.02 "HgN/A
1:00 am30 °FChilly.5 mph97%30.03 "HgN/A
12:00 am31 °FChilly.9 mph93%30.03 "HgN/A
11:00 pm
Thu, Jan 19
31 °FChilly.9 mph93%30.03 "HgN/A
10:00 pm31 °FChilly.13 mph92%30.02 "HgN/A
9:00 pm32 °FChilly.9 mph87%29.99 "HgN/A
8:00 pm32 °FChilly.12 mph90%29.98 "HgN/A
7:00 pm31 °FChilly.9 mph94%29.97 "HgN/A
6:00 pm34 °FChilly.12 mph86%29.95 "HgN/A
5:00 pm33 °FChilly.7 mph91%29.93 "HgN/A
4:00 pm31 °FChilly.1 mph94%29.91 "HgN/A
3:00 pm29 °FChilly.2 mph96%29.91 "HgN/A
2:00 pm28 °FChilly.2 mph96%29.90 "HgN/A
1:00 pm27 °FChilly.3 mph98%29.90 "HgN/A
12:00 pm26 °FChilly.1 mph97%29.90 "HgN/A
11:00 am26 °FChilly.1 mph96%29.90 "HgN/A
10:00 am24 °FCold.3 mph96%29.91 "HgN/A
9:00 am24 °FCold.2 mph96%29.90 "HgN/A
8:00 am23 °FCold.2 mph96%29.89 "HgN/A
7:00 am23 °FCold.1 mph97%29.89 "HgN/A
6:00 am22 °FCold.3 mph96%29.89 "HgN/A
5:00 am22 °FCold.2 mph100%29.88 "HgN/A
4:00 am22 °FCold.5 mph94%29.87 "HgN/A
Weather by CustomWeather, © 2017

See weather overviewHow to use our weather pages